,,Stat5,,Stat1,,Stat2,,Stat3,,Stat4,,Wind1,,Wind1,
time,status,PA1M_AVG,status,PR1M_SUM,status,RH1M_AVG,status,SR1M_AVG,status,TA1M_AVG,status,W1dAve1m,status,W1sAve1m,
2001-03-06, 00:00:00,VALID,918.691,VALID,0,VALID,95.6781,VALID,0.101885,VALID,20.6857,VALID,93,VALID,0.00460737,
2001-03-06, 00:01:00,VALID,918.691,VALID,0,VALID,95.6781,VALID,0.101885,VALID,20.6758,VALID,93,VALID,0.000434028,
2001-03-06, 00:02:00,VALID,918.646,VALID,0,VALID,95.7633,VALID,0.0849042,VALID,20.6618,VALID,94,VALID,0.440538,
2001-03-06, 00:03:00,VALID,918.619,VALID,0,VALID,95.776,VALID,0.0849042,VALID,20.6823,VALID,95,VALID,0.464949,
2001-03-06, 00:04:00,VALID,918.576,VALID,0,VALID,95.7798,VALID,0.101885,VALID,20.6685,VALID,95,VALID,0.569696,
2001-03-06, 00:05:00,VALID,918.537,VALID,0,VALID,95.7747,VALID,0.0339617,VALID,20.6631,VALID,102,VALID,0.670641,
2001-03-06, 00:06:00,VALID,918.5,VALID,0,VALID,95.8408,VALID,-0.0509425,VALID,20.6717,VALID,104,VALID,0.645765,
2001-03-06, 00:07:00,VALID,918.475,VALID,0,VALID,95.8357,VALID,-0.0679233,VALID,20.6542,VALID,93,VALID,0.994038,
2001-03-06, 00:08:00,VALID,918.464,VALID,0,VALID,95.8879,VALID,0,VALID,20.6418,VALID,92,VALID,1.34776,
2001-03-06, 00:09:00,VALID,918.446,VALID,0,VALID,95.9057,VALID,-0.0339617,VALID,20.6224,VALID,77,VALID,1.12891,
2001-03-06, 00:10:00,VALID,918.442,VALID,0,VALID,95.8714,VALID,0,VALID,20.613,VALID,98,VALID,0.854167,
2001-03-06, 00:11:00,VALID,918.433,VALID,0,VALID,95.9604,VALID,-0.0169808,VALID,20.5899,VALID,91,VALID,0.98787,
2001-03-06, 00:12:00,VALID,918.402,VALID,0,VALID,96.0341,VALID,0,VALID,20.5869,VALID,88,VALID,0.977364,
2001-03-06, 00:13:00,VALID,918.4,VALID,0,VALID,96.057,VALID,-0.0169808,VALID,20.5807,VALID,89,VALID,0.785362,
2001-03-06, 00:14:00,VALID,918.396,VALID,0,VALID,96.0608,VALID,-0.0169808,VALID,20.5479,VALID,91,VALID,1.01242,
2001-03-06, 00:15:00,VALID,918.386,VALID,0,VALID,96.1956,VALID,-0.0169808,VALID,20.5352,VALID,86,VALID,0.738076,
2001-03-06, 00:16:00,VALID,918.399,VALID,0,VALID,96.2681,VALID,-0.0339617,VALID,20.5126,VALID,66,VALID,0.423878,
2001-03-06, 00:17:00,VALID,918.403,VALID,0,VALID,96.3419,VALID,-0.0509425,VALID,20.5029,VALID,96,VALID,0.267887,
2001-03-06, 00:18:00,VALID,918.401,VALID,0,VALID,96.4194,VALID,0,VALID,20.5128,VALID,94,VALID,0.73097,
2001-03-06, 00:19:00,VALID,918.386,VALID,0,VALID,96.3571,VALID,-0.0509425,VALID,20.5096,VALID,94,VALID,0.891859,
2001-03-06, 00:20:00,VALID,918.37,VALID,0,VALID,96.3533,VALID,-0.0169808,VALID,20.4996,VALID,90,VALID,0.422877,
2001-03-06, 00:21:00,VALID,918.368,VALID,0,VALID,96.3711,VALID,-0.0339617,VALID,20.4994,VALID,91,VALID,0.415707,
2001-03-06, 00:22:00,VALID,918.365,VALID,0,VALID,96.3571,VALID,-0.0169808,VALID,20.4934,VALID,58,VALID,0.267829,
2001-03-06, 00:23:00,VALID,918.352,VALID,0,VALID,96.4283,VALID,-0.0169808,VALID,20.4934,VALID,72,VALID,0.083676,
2001-03-06, 00:24:00,VALID,918.341,VALID,0,VALID,96.497,VALID,0,VALID,20.5031,VALID,91,VALID,0.207131,
2001-03-06, 00:25:00,VALID,918.318,VALID,0,VALID,96.4347,VALID,-0.0339617,VALID,20.5096,VALID,90,VALID,0.38528,
2001-03-06, 00:26:00,VALID,918.281,VALID,0,VALID,96.4627,VALID,-0.0509425,VALID,20.5193,VALID,90,VALID,0.382011,
2001-03-06, 00:27:00,VALID,918.272,VALID,0,VALID,96.3914,VALID,-0.0169808,VALID,20.5325,VALID,90,VALID,0.206003,
2001-03-06, 00:28:00,VALID,918.263,VALID,0,VALID,96.2567,VALID,-0.0509425,VALID,20.5193,VALID,97,VALID,0.0909455,
2001-03-06, 00:29:00,VALID,918.242,VALID,0,VALID,96.2312,VALID,-0.0169808,VALID,20.5193,VALID,121,VALID,0.439556,
2001-03-06, 00:30:00,VALID,918.222,VALID,0,VALID,96.221,VALID,-0.0169808,VALID,20.5193,VALID,149,VALID,0.620793,
2001-03-06, 00:31:00,VALID,918.22,VALID,0,VALID,96.2312,VALID,-0.0169808,VALID,20.5066,VALID,182,VALID,0.416118,
2001-03-06, 00:32:00,VALID,918.21,VALID,0,VALID,96.2961,VALID,0,VALID,20.4862,VALID,198,VALID,0.218149,
2001-03-06, 00:33:00,VALID,918.202,VALID,0,VALID,96.2172,VALID,-0.0849042,VALID,20.4676,VALID,204,VALID,0.0688734,
2001-03-06, 00:34:00,VALID,918.177,VALID,0,VALID,96.1854,VALID,-0.0679233,VALID,20.4617,VALID,213,VALID,0.495593,
2001-03-06, 00:35:00,VALID,918.171,VALID,0,VALID,96.2261,VALID,-0.0339617,VALID,20.4253,VALID,217,VALID,0.490543,
2001-03-06, 00:36:00,VALID,918.16,VALID,0,VALID,96.3444,VALID,-0.0509425,VALID,20.4035,VALID,211,VALID,0.467949,
2001-03-06, 00:37:00,VALID,918.146,VALID,0,VALID,96.6063,VALID,0,VALID,20.3831,VALID,210,VALID,0.338405,
2001-03-06, 00:38:00,VALID,918.127,VALID,0,VALID,96.7106,VALID,-0.0169808,VALID,20.3742,VALID,198,VALID,0.339343,
2001-03-06, 00:39:00,VALID,918.114,VALID,0,VALID,96.7221,VALID,-0.0339617,VALID,20.3481,VALID,139,VALID,0.478618,
2001-03-06, 00:40:00,VALID,918.085,VALID,0,VALID,96.7182,VALID,-0.0679233,VALID,20.3254,VALID,142,VALID,0.71234,
2001-03-06, 00:41:00,VALID,918.073,VALID,0,VALID,96.736,VALID,-0.0169808,VALID,20.3182,VALID,139,VALID,0.491982,
2001-03-06, 00:42:00,VALID,918.047,VALID,0,VALID,96.6114,VALID,0,VALID,20.3217,VALID,138,VALID,0.496995,
2001-03-06, 00:43:00,VALID,918.039,VALID,0,VALID,96.7271,VALID,-0.0339617,VALID,20.3386,VALID,144,VALID,0.44963,
2001-03-06, 00:44:00,VALID,918.038,VALID,0,VALID,96.7577,VALID,0,VALID,20.3118,VALID,155,VALID,0.446579,
2001-03-06, 00:45:00,VALID,918.046,VALID,0,VALID,96.8467,VALID,-0.0169808,VALID,20.3155,VALID,161,VALID,0.430715,
2001-03-06, 00:46:00,VALID,918.04,VALID,0,VALID,96.9293,VALID,0,VALID,20.3254,VALID,169,VALID,0.355769,
2001-03-06, 00:47:00,VALID,918.024,VALID,0,VALID,96.9878,VALID,-0.0169808,VALID,20.3158,VALID,175,VALID,0.231291,
2001-03-06, 00:48:00,VALID,918.012,VALID,0,VALID,97.0272,VALID,0,VALID,20.3354,VALID,208,VALID,0.236979,
2001-03-06, 00:49:00,VALID,917.996,VALID,0,VALID,97.0501,VALID,-0.0169808,VALID,20.3287,VALID,248,VALID,0.430921,
2001-03-06, 00:50:00,VALID,917.982,VALID,0,VALID,97.0527,VALID,-0.0509425,VALID,20.3351,VALID,242,VALID,0.719351,
2001-03-06, 00:51:00,VALID,917.971,VALID,0,VALID,97.0692,VALID,0,VALID,20.351,VALID,244,VALID,0.760074,
2001-03-06, 00:52:00,VALID,917.95,VALID,0,VALID,97.0972,VALID,-0.0339617,VALID,20.358,VALID,252,VALID,0.518429,
2001-03-06, 00:53:00,VALID,917.93,VALID,0,VALID,97.1086,VALID,-0.0339617,VALID,20.3642,VALID,252,VALID,0.433183,
2001-03-06, 00:54:00,VALID,917.923,VALID,0,VALID,97.0807,VALID,0,VALID,20.3577,VALID,253,VALID,0.465745,
2001-03-06, 00:55:00,VALID,917.901,VALID,0,VALID,97.0374,VALID,-0.0169808,VALID,20.3642,VALID,233,VALID,0.452919,
2001-03-06, 00:56:00,VALID,917.884,VALID,0,VALID,97.0552,VALID,-0.0169808,VALID,20.3583,VALID,223,VALID,0.389022,
2001-03-06, 00:57:00,VALID,917.871,VALID,0,VALID,97.0807,VALID,-0.0679233,VALID,20.3545,VALID,240,VALID,0.366776,
2001-03-06, 00:58:00,VALID,917.843,VALID,0,VALID,97.0921,VALID,0,VALID,20.3577,VALID,251,VALID,0.247796,
2001-03-06, 00:59:00,VALID,917.828,VALID,0,VALID,97.0336,VALID,-0.0509425,VALID,20.3448,VALID,216,VALID,0.490337,
2001-03-06, 01:00:00,VALID,917.819,VALID,0,VALID,97.0438,VALID,-0.0339617,VALID,20.3314,VALID,224,VALID,0.445713,
2001-03-06, 01:01:00,VALID,917.812,VALID,0,VALID,97.1201,VALID,-0.0339617,VALID,20.3351,VALID,215,VALID,0.421258,
2001-03-06, 01:02:01,VALID,917.823,VALID,0,VALID,97.1887,VALID,-0.0169808,VALID,20.3386,VALID,189,VALID,0.0997596,
2001-03-06, 01:03:00,VALID,917.826,VALID,0,VALID,97.251,VALID,0,VALID,20.3413,VALID,165,VALID,0.0976563,
2001-03-06, 01:04:00,VALID,917.822,VALID,0,VALID,97.2154,VALID,-0.0169808,VALID,20.3443,VALID,165,VALID,0,
2001-03-06, 01:05:00,VALID,917.826,VALID,0,VALID,97.1328,VALID,-0.0169808,VALID,20.3575,VALID,169,VALID,0.0474918,
2001-03-06, 01:06:01,VALID,917.807,VALID,0,VALID,97.0946,VALID,0.101885,VALID,20.3366,VALID,182,VALID,0.41226,
2001-03-06, 01:07:00,VALID,917.788,VALID,0,VALID,97.1099,VALID,0.0679233,VALID,20.3234,VALID,182,VALID,0.485403,
2001-03-06, 01:08:00,VALID,917.777,VALID,0,VALID,97.115,VALID,0.101885,VALID,20.3202,VALID,180,VALID,0.191907,
2001-03-06, 01:09:00,VALID,917.746,VALID,0,VALID,97.1875,VALID,0.0849042,VALID,20.3274,VALID,179,VALID,0,
2001-03-06, 01:10:00,VALID,917.736,VALID,0,VALID,97.1887,VALID,0.0679233,VALID,20.3105,VALID,169,VALID,0,
2001-03-06, 01:11:00,VALID,917.702,VALID,0,VALID,97.162,VALID,0.0849042,VALID,20.3306,VALID,164,VALID,0,
2001-03-06, 01:12:00,VALID,917.684,VALID,0,VALID,97.1023,VALID,0.0849042,VALID,20.3105,VALID,164,VALID,0,
2001-03-06, 01:13:00,VALID,917.66,VALID,0,VALID,97.0654,VALID,0.101885,VALID,20.308,VALID,164,VALID,0,
2001-03-06, 01:14:01,VALID,917.647,VALID,0,VALID,97.0552,VALID,0.0849042,VALID,20.2884,VALID,170,VALID,0,
2001-03-06, 01:15:00,VALID,917.634,VALID,0,VALID,97.0679,VALID,0.101885,VALID,20.2787,VALID,175,VALID,0,
2001-03-06, 01:16:01,VALID,917.617,VALID,0,VALID,97.0997,VALID,0.0339617,VALID,20.2792,VALID,175,VALID,0,
2001-03-06, 01:17:00,VALID,917.598,VALID,0,VALID,97.0654,VALID,0.0849042,VALID,20.2881,VALID,175,VALID,0,
2001-03-06, 01:18:01,VALID,917.589,VALID,0,VALID,96.9624,VALID,0.0849042,VALID,20.2851,VALID,174,VALID,0,
2001-03-06, 01:19:00,VALID,917.581,VALID,0,VALID,96.9497,VALID,0.0339617,VALID,20.2891,VALID,174,VALID,0,
2001-03-06, 01:20:01,VALID,917.58,VALID,0,VALID,96.9662,VALID,0.0339617,VALID,20.2857,VALID,174,VALID,0,
2001-03-06, 01:21:00,VALID,917.555,VALID,0,VALID,96.9255,VALID,-0.0509425,VALID,20.2864,VALID,174,VALID,0,
2001-03-06, 01:22:01,VALID,917.542,VALID,0,VALID,96.8416,VALID,-0.0509425,VALID,20.2772,VALID,174,VALID,0,
2001-03-06, 01:23:00,VALID,917.53,VALID,0,VALID,96.8251,VALID,-0.0339617,VALID,20.274,VALID,176,VALID,0,
2001-03-06, 01:24:00,VALID,917.507,VALID,0,VALID,96.9471,VALID,-0.0509425,VALID,20.2544,VALID,193,VALID,0,
2001-03-06, 01:25:00,VALID,917.488,VALID,0,VALID,97.0285,VALID,0,VALID,20.2608,VALID,218,VALID,0,
2001-03-06, 01:26:01,VALID,917.462,VALID,0,VALID,97.0845,VALID,-0.0679233,VALID,20.2815,VALID,212,VALID,0,
2001-03-06, 01:27:00,VALID,917.449,VALID,0,VALID,97.1442,VALID,-0.0339617,VALID,20.2772,VALID,210,VALID,0,
2001-03-06, 01:28:01,VALID,917.425,VALID,0,VALID,97.1519,VALID,-0.0339617,VALID,20.2834,VALID,210,VALID,0,
2001-03-06, 01:29:00,VALID,917.402,VALID,0,VALID,97.1684,VALID,-0.0509425,VALID,20.2999,VALID,210,VALID,0,
2001-03-06, 01:30:01,VALID,917.404,VALID,0,VALID,97.1544,VALID,-0.0169808,VALID,20.2961,VALID,209,VALID,0,
2001-03-06, 01:31:00,VALID,917.398,VALID,0,VALID,97.1175,VALID,-0.0339617,VALID,20.3061,VALID,227,VALID,0,
2001-03-06, 01:32:01,VALID,917.387,VALID,0,VALID,97.0679,VALID,-0.0339617,VALID,20.2964,VALID,230,VALID,0,
2001-03-06, 01:33:00,VALID,917.395,VALID,0,VALID,97.0832,VALID,-0.0169808,VALID,20.277,VALID,223,VALID,0,
2001-03-06, 01:34:01,VALID,917.402,VALID,0,VALID,97.0857,VALID,-0.0509425,VALID,20.2643,VALID,182,VALID,0,
2001-03-06, 01:35:00,VALID,917.384,VALID,0,VALID,97.1735,VALID,-0.0509425,VALID,20.2579,VALID,170,VALID,0,
2001-03-06, 01:36:00,VALID,917.37,VALID,0,VALID,97.251,VALID,0,VALID,20.2476,VALID,170,VALID,0,
2001-03-06, 01:37:00,VALID,917.343,VALID,0,VALID,97.2905,VALID,0,VALID,20.2452,VALID,172,VALID,0,
2001-03-06, 01:38:01,VALID,917.328,VALID,0,VALID,97.2752,VALID,-0.0169808,VALID,20.2253,VALID,183,VALID,0,
2001-03-06, 01:39:00,VALID,917.31,VALID,0,VALID,97.2739,VALID,-0.0169808,VALID,20.2096,VALID,187,VALID,0,
2001-03-06, 01:40:01,VALID,917.305,VALID,0,VALID,97.3057,VALID,0,VALID,20.1935,VALID,185,VALID,0,
2001-03-06, 01:41:00,VALID,917.28,VALID,0,VALID,97.3362,VALID,-0.0169808,VALID,20.1736,VALID,178,VALID,0,
2001-03-06, 01:42:01,VALID,917.286,VALID,0,VALID,97.3375,VALID,-0.0169808,VALID,20.151,VALID,174,VALID,0,
2001-03-06, 01:43:00,VALID,917.282,VALID,0,VALID,97.4049,VALID,0,VALID,20.1426,VALID,181,VALID,0,
2001-03-06, 01:44:01,VALID,917.271,VALID,0,VALID,97.4799,VALID,0,VALID,20.1157,VALID,181,VALID,0,
2001-03-06, 01:45:00,VALID,917.263,VALID,0,VALID,97.4812,VALID,-0.0169808,VALID,20.1095,VALID,181,VALID,0,
2001-03-06, 01:46:01,VALID,917.246,VALID,0,VALID,97.5766,VALID,0,VALID,20.0901,VALID,180,VALID,0,
2001-03-06, 01:47:00,VALID,917.235,VALID,0,VALID,97.5639,VALID,-0.0679233,VALID,20.0839,VALID,174,VALID,0,
2001-03-06, 01:48:00,VALID,917.227,VALID,0,VALID,97.5499,VALID,-0.0169808,VALID,20.0737,VALID,162,VALID,0,
2001-03-06, 01:49:00,VALID,917.209,VALID,0,VALID,97.466,VALID,-0.0339617,VALID,20.0645,VALID,139,VALID,0,
2001-03-06, 01:50:01,VALID,917.199,VALID,0,VALID,97.4278,VALID,0,VALID,20.0513,VALID,135,VALID,0.142829,
2001-03-06, 01:51:00,VALID,917.195,VALID,0,VALID,97.4507,VALID,-0.0169808,VALID,20.0317,VALID,127,VALID,0.778166,
2001-03-06, 01:52:01,VALID,917.167,VALID,0,VALID,97.5257,VALID,0,VALID,20.0444,VALID,129,VALID,0.789063,
2001-03-06, 01:53:00,VALID,917.15,VALID,0,VALID,97.5639,VALID,0,VALID,20.0608,VALID,131,VALID,0.541941,
2001-03-06, 01:54:01,VALID,917.116,VALID,0,VALID,97.5346,VALID,-0.0169808,VALID,20.0702,VALID,146,VALID,0.553285,
2001-03-06, 01:55:00,VALID,917.104,VALID,0,VALID,97.4863,VALID,0,VALID,20.0675,VALID,157,VALID,0.419202,
2001-03-06, 01:56:01,VALID,917.073,VALID,0,VALID,97.4787,VALID,0,VALID,20.0476,VALID,168,VALID,0.321915,
2001-03-06, 01:57:00,VALID,917.047,VALID,0,VALID,97.4698,VALID,0,VALID,20.0446,VALID,179,VALID,0.174753,
2001-03-06, 01:58:01,VALID,917.026,VALID,0,VALID,97.4799,VALID,0,VALID,20.0414,VALID,190,VALID,0.109776,
2001-03-06, 01:59:00,VALID,917.01,VALID,0,VALID,97.4748,VALID,0,VALID,20.0218,VALID,192,VALID,0.222039,
2001-03-06, 02:00:00,VALID,917,VALID,0,VALID,97.466,VALID,0,VALID,20.0252,VALID,197,VALID,0.0316506,
2001-03-06, 02:01:00,VALID,916.972,VALID,0,VALID,97.293,VALID,-0.0169808,VALID,20.0066,VALID,204,VALID,0.103413,
2001-03-06, 02:02:01,VALID,916.951,VALID,0,VALID,97.2053,VALID,0,VALID,19.9574,VALID,204,VALID,0.00240385,
2001-03-06, 02:03:00,VALID,916.937,VALID,0,VALID,97.1074,VALID,-0.0339617,VALID,19.9219,VALID,204,VALID,0,
2001-03-06, 02:04:01,VALID,916.924,VALID,0,VALID,97.1671,VALID,0,VALID,19.903,VALID,234,VALID,0.260417,
2001-03-06, 02:05:00,VALID,916.915,VALID,0,VALID,97.2905,VALID,-0.0339617,VALID,19.8866,VALID,223,VALID,0.354441,
2001-03-06, 02:06:01,VALID,916.887,VALID,0,VALID,97.4227,VALID,-0.0169808,VALID,19.8836,VALID,218,VALID,0.0633013,
2001-03-06, 02:07:00,VALID,916.869,VALID,0,VALID,97.4151,VALID,-0.0169808,VALID,19.8573,VALID,217,VALID,0.0197368,
2001-03-06, 02:08:01,VALID,916.85,VALID,0,VALID,97.0667,VALID,0,VALID,19.7924,VALID,202,VALID,0,
2001-03-06, 02:09:00,VALID,916.833,VALID,0,VALID,96.8619,VALID,-0.0169808,VALID,19.7218,VALID,160,VALID,0,
2001-03-06, 02:10:01,VALID,916.822,VALID,0,VALID,97.1239,VALID,0,VALID,19.7089,VALID,157,VALID,0,
2001-03-06, 02:11:00,VALID,916.813,VALID,0,VALID,97.1926,VALID,0,VALID,19.6704,VALID,123,VALID,0,
2001-03-06, 02:12:00,VALID,916.825,VALID,0,VALID,97.1709,VALID,0,VALID,19.6147,VALID,101,VALID,0.509816,
2001-03-06, 02:13:00,VALID,916.811,VALID,0,VALID,97.1277,VALID,0,VALID,19.5805,VALID,101,VALID,0.658717,
2001-03-06, 02:14:01,VALID,916.79,VALID,0,VALID,97.1086,VALID,0,VALID,19.5283,VALID,101,VALID,0.617588,
2001-03-06, 02:15:00,VALID,916.779,VALID,0,VALID,97.1379,VALID,0,VALID,19.4835,VALID,101,VALID,0.556743,
2001-03-06, 02:16:01,VALID,916.771,VALID,0,VALID,97.4545,VALID,0,VALID,19.4863,VALID,101,VALID,0.448117,
2001-03-06, 02:17:00,VALID,916.748,VALID,0,VALID,97.5041,VALID,0.0169808,VALID,19.4699,VALID,101,VALID,0.184211,
2001-03-06, 02:18:01,VALID,916.759,VALID,0,VALID,97.6211,VALID,0.0169808,VALID,19.4669,VALID,101,VALID,0.177684,
2001-03-06, 02:19:00,VALID,916.757,VALID,0,VALID,97.7317,VALID,0,VALID,19.4729,VALID,101,VALID,0,
2001-03-06, 02:20:01,VALID,916.757,VALID,0,VALID,97.616,VALID,0,VALID,19.4639,VALID,101,VALID,0.000801282,
2001-03-06, 02:21:00,VALID,916.754,VALID,0,VALID,97.4596,VALID,0,VALID,19.4214,VALID,101,VALID,0.342516,
2001-03-06, 02:22:01,VALID,916.763,VALID,0,VALID,97.5511,VALID,0,VALID,19.4279,VALID,101,VALID,0.628405,
2001-03-06, 02:23:00,VALID,916.777,VALID,0,VALID,97.8195,VALID,0,VALID,19.4771,VALID,101,VALID,0.584498,
2001-03-06, 02:24:00,VALID,916.779,VALID,0,VALID,97.8436,VALID,0.0169808,VALID,19.4634,VALID,101,VALID,0.44992,
2001-03-06, 02:25:00,VALID,916.783,VALID,0,VALID,98.0318,VALID,0.0169808,VALID,19.5226,VALID,95,VALID,0.574219,
2001-03-06, 02:26:01,VALID,916.793,VALID,0,VALID,98.1094,VALID,0,VALID,19.5414,VALID,91,VALID,0.869591,
2001-03-06, 02:27:00,VALID,916.802,VALID,0,VALID,98.1641,VALID,-0.0339617,VALID,19.5546,VALID,92,VALID,0.876028,
2001-03-06, 02:28:01,VALID,916.804,VALID,0,VALID,98.1806,VALID,0,VALID,19.5608,VALID,93,VALID,0.922075,
2001-03-06, 02:29:00,VALID,916.803,VALID,0,VALID,98.2009,VALID,-0.0169808,VALID,19.5541,VALID,95,VALID,0.872327,
2001-03-06, 02:30:01,VALID,916.809,VALID,0,VALID,98.2327,VALID,-0.0169808,VALID,19.5606,VALID,92,VALID,0.939503,
2001-03-06, 02:31:00,VALID,916.798,VALID,0,VALID,98.2709,VALID,0,VALID,19.5578,VALID,96,VALID,0.625206,
2001-03-06, 02:32:01,VALID,916.79,VALID,0,VALID,98.2696,VALID,-0.0339617,VALID,19.5678,VALID,102,VALID,0.466947,
2001-03-06, 02:33:00,VALID,916.777,VALID,0,VALID,98.3103,VALID,0,VALID,19.5775,VALID,107,VALID,0.663446,
2001-03-06, 02:34:01,VALID,916.766,VALID,0,VALID,98.3459,VALID,-0.0169808,VALID,19.5705,VALID,114,VALID,0.603966,
2001-03-06, 02:35:00,VALID,916.752,VALID,0,VALID,98.4082,VALID,-0.0169808,VALID,19.5971,VALID,96,VALID,0.557771,
2001-03-06, 02:36:00,VALID,916.752,VALID,0,VALID,98.4247,VALID,0,VALID,19.5901,VALID,96,VALID,0.416667,
2001-03-06, 02:37:00,VALID,916.737,VALID,0,VALID,98.4514,VALID,0,VALID,19.616,VALID,95,VALID,0.411133,
2001-03-06, 02:38:01,VALID,916.716,VALID,0,VALID,98.4731,VALID,0,VALID,19.6192,VALID,92,VALID,0.5627,
2001-03-06, 02:39:00,VALID,916.706,VALID,0,VALID,98.4667,VALID,0,VALID,19.619,VALID,90,VALID,0.515625,
2001-03-06, 02:40:01,VALID,916.682,VALID,0,VALID,98.4095,VALID,0,VALID,19.5926,VALID,91,VALID,0.642628,
2001-03-06, 02:41:00,VALID,916.662,VALID,0,VALID,98.4082,VALID,0,VALID,19.5996,VALID,87,VALID,0.720806,
2001-03-06, 02:42:01,VALID,916.651,VALID,0,VALID,98.4184,VALID,0,VALID,19.613,VALID,88,VALID,0.618389,
2001-03-06, 02:43:01,VALID,916.644,VALID,0,VALID,98.4184,VALID,0,VALID,19.6058,VALID,88,VALID,0.502262,
2001-03-06, 02:44:01,VALID,916.646,VALID,0,VALID,98.4324,VALID,0,VALID,19.6157,VALID,88,VALID,0.450321,
2001-03-06, 02:45:00,VALID,916.662,VALID,0,VALID,98.4527,VALID,0,VALID,19.6155,VALID,88,VALID,0.268709,
2001-03-06, 02:46:01,VALID,916.668,VALID,0,VALID,98.4642,VALID,0,VALID,19.6349,VALID,82,VALID,0.354167,
2001-03-06, 02:47:00,VALID,916.673,VALID,0,VALID,98.4998,VALID,0,VALID,19.661,VALID,82,VALID,0.471834,
2001-03-06, 02:48:01,VALID,916.669,VALID,0,VALID,98.5087,VALID,-0.0339617,VALID,19.6838,VALID,73,VALID,0.303285,
2001-03-06, 02:49:00,VALID,916.671,VALID,0,VALID,98.5277,VALID,0,VALID,19.7194,VALID,43,VALID,0.116982,
2001-03-06, 02:50:01,VALID,916.678,VALID,0,VALID,98.543,VALID,-0.0169808,VALID,19.7387,VALID,50,VALID,0,
2001-03-06, 02:51:00,VALID,916.673,VALID,0,VALID,98.4883,VALID,-0.0509425,VALID,19.7293,VALID,49,VALID,0.0431743,
2001-03-06, 02:52:01,VALID,916.673,VALID,0,VALID,98.4476,VALID,0,VALID,19.7228,VALID,50,VALID,0.0216346,
2001-03-06, 02:53:01,VALID,916.666,VALID,0,VALID,98.4413,VALID,-0.0509425,VALID,19.7196,VALID,51,VALID,0,
2001-03-06, 02:54:01,VALID,916.661,VALID,0,VALID,98.3675,VALID,0,VALID,19.6905,VALID,52,VALID,0,
2001-03-06, 02:55:00,VALID,916.639,VALID,0,VALID,98.3484,VALID,-0.0339617,VALID,19.6803,VALID,52,VALID,0,
2001-03-06, 02:56:01,VALID,916.637,VALID,0,VALID,98.4298,VALID,-0.0169808,VALID,19.7194,VALID,52,VALID,0,
2001-03-06, 02:57:00,VALID,916.621,VALID,0,VALID,98.3853,VALID,-0.0339617,VALID,19.7261,VALID,52,VALID,0,
2001-03-06, 02:58:01,VALID,916.607,VALID,0,VALID,98.3993,VALID,0,VALID,19.7223,VALID,52,VALID,0,
2001-03-06, 02:59:01,VALID,916.601,VALID,0,VALID,98.3268,VALID,0,VALID,19.7097,VALID,52,VALID,0,
2001-03-06, 03:00:01,VALID,916.593,VALID,0,VALID,98.3065,VALID,0,VALID,19.7034,VALID,52,VALID,0,
2001-03-06, 03:01:01,VALID,916.578,VALID,0,VALID,98.3217,VALID,0,VALID,19.7102,VALID,52,VALID,0,
2001-03-06, 03:02:01,VALID,916.554,VALID,0,VALID,98.3497,VALID,0,VALID,19.7256,VALID,52,VALID,0,
2001-03-06, 03:03:01,VALID,916.549,VALID,0,VALID,98.3561,VALID,-0.0169808,VALID,19.739,VALID,52,VALID,0,
2001-03-06, 03:04:01,VALID,916.544,VALID,0,VALID,98.3662,VALID,-0.0339617,VALID,19.7487,VALID,52,VALID,0,
2001-03-06, 03:05:01,VALID,916.547,VALID,0,VALID,98.337,VALID,0,VALID,19.7522,VALID,52,VALID,0,
2001-03-06, 03:06:01,VALID,916.55,VALID,0,VALID,98.309,VALID,0,VALID,19.7385,VALID,52,VALID,0,
2001-03-06, 03:07:01,VALID,916.549,VALID,0,VALID,98.131,VALID,0,VALID,19.687,VALID,52,VALID,0,
2001-03-06, 03:08:01,VALID,916.554,VALID,0,VALID,97.9059,VALID,0,VALID,19.606,VALID,52,VALID,0,
2001-03-06, 03:09:01,VALID,916.56,VALID,0,VALID,97.6872,VALID,0,VALID,19.5608,VALID,52,VALID,0,
2001-03-06, 03:10:01,VALID,916.573,VALID,0,VALID,97.5244,VALID,0,VALID,19.5325,VALID,52,VALID,0,
2001-03-06, 03:11:01,VALID,916.581,VALID,0,VALID,97.5181,VALID,0,VALID,19.5024,VALID,52,VALID,0,
2001-03-06, 03:12:01,VALID,916.592,VALID,0,VALID,97.5359,VALID,-0.0169808,VALID,19.4999,VALID,52,VALID,0,
2001-03-06, 03:13:01,VALID,916.597,VALID,0,VALID,97.6033,VALID,0,VALID,19.5129,VALID,52,VALID,0,
2001-03-06, 03:14:01,VALID,916.59,VALID,0,VALID,97.7851,VALID,-0.0339617,VALID,19.5419,VALID,85,VALID,0.0608974,
2001-03-06, 03:15:01,VALID,916.59,VALID,0,VALID,98.0445,VALID,-0.0169808,VALID,19.61,VALID,99,VALID,0.111431,
2001-03-06, 03:16:01,VALID,916.577,VALID,0,VALID,98.1831,VALID,-0.0509425,VALID,19.6518,VALID,95,VALID,0,
2001-03-06, 03:17:01,VALID,916.59,VALID,0,VALID,98.3001,VALID,-0.0509425,VALID,19.6908,VALID,95,VALID,0.247122,
2001-03-06, 03:18:01,VALID,916.582,VALID,0,VALID,98.3268,VALID,-0.0679233,VALID,19.7039,VALID,95,VALID,0.398438,
2001-03-06, 03:19:01,VALID,916.598,VALID,0,VALID,98.3077,VALID,-0.0169808,VALID,19.6739,VALID,96,VALID,0.324219,
2001-03-06, 03:20:01,VALID,916.611,VALID,0,VALID,98.2709,VALID,-0.0679233,VALID,19.6483,VALID,96,VALID,0.38762,
2001-03-06, 03:21:00,VALID,916.607,VALID,0,VALID,98.2404,VALID,0,VALID,19.6359,VALID,96,VALID,0.483553,
2001-03-06, 03:22:00,VALID,916.612,VALID,0,VALID,98.2747,VALID,0,VALID,19.6162,VALID,95,VALID,0.5625,
2001-03-06, 03:23:00,VALID,916.605,VALID,0,VALID,98.3853,VALID,-0.0339617,VALID,19.6582,VALID,95,VALID,0.536801,
2001-03-06, 03:24:00,VALID,916.591,VALID,0,VALID,98.4502,VALID,-0.0169808,VALID,19.6654,VALID,96,VALID,0.58153,
2001-03-06, 03:25:00,VALID,916.572,VALID,0,VALID,98.5379,VALID,0,VALID,19.6873,VALID,101,VALID,0.830798,
2001-03-06, 03:26:00,VALID,916.543,VALID,0,VALID,98.5761,VALID,-0.0339617,VALID,19.7005,VALID,105,VALID,0.761819,
2001-03-06, 03:27:00,VALID,916.528,VALID,0,VALID,98.59,VALID,0,VALID,19.7069,VALID,109,VALID,0.754112,
2001-03-06, 03:28:00,VALID,916.512,VALID,0,VALID,98.5913,VALID,-0.0339617,VALID,19.6977,VALID,115,VALID,0.769631,
2001-03-06, 03:29:00,VALID,916.502,VALID,0,VALID,98.5875,VALID,-0.0509425,VALID,19.6682,VALID,118,VALID,0.622327,
2001-03-06, 03:30:00,VALID,916.497,VALID,0,VALID,98.5939,VALID,-0.0169808,VALID,19.6485,VALID,113,VALID,0.937901,
2001-03-06, 03:31:00,VALID,916.496,VALID,0,VALID,98.5964,VALID,-0.0509425,VALID,19.6299,VALID,113,VALID,0.765008,
2001-03-06, 03:32:00,VALID,916.49,VALID,0,VALID,98.6053,VALID,-0.0339617,VALID,19.6132,VALID,120,VALID,0.657051,
2001-03-06, 03:33:00,VALID,916.484,VALID,0,VALID,98.6473,VALID,-0.0509425,VALID,19.6038,VALID,109,VALID,0.70991,
2001-03-06, 03:34:00,VALID,916.486,VALID,0,VALID,98.6841,VALID,-0.0339617,VALID,19.607,VALID,109,VALID,0.34395,
2001-03-06, 03:35:00,VALID,916.482,VALID,0,VALID,98.6956,VALID,-0.0169808,VALID,19.5869,VALID,117,VALID,0.266036,
2001-03-06, 03:36:00,VALID,916.483,VALID,0,VALID,98.6638,VALID,-0.0509425,VALID,19.578,VALID,115,VALID,0.317308,
2001-03-06, 03:37:00,VALID,916.477,VALID,0,VALID,98.6752,VALID,-0.0169808,VALID,19.5419,VALID,98,VALID,0.465049,
2001-03-06, 03:38:00,VALID,916.48,VALID,0,VALID,98.6854,VALID,-0.0339617,VALID,19.5389,VALID,98,VALID,0.460136,